STARLINK-34700, 64922

Orbit data source: Space-Track

STARLINK-34700, 64922 is a payload satellite owned by SpaceX/Seattle (US) in LEO that was launched on Sat, 26 Jul 2025 UTC via an FALCON 9 launch vehicle from the Air Force Eastern Test Range (AFETR). Payload-class satellites include a variety of spacecraft equipped with specific instruments for various scientific and technological missions. These include communications satellites like Starlink; space stations such as the ISS; scientific satellites like the Hubble; Earth observation satellites from companies like Planet Labs, Umbra, and HawkEye 360; GPS; miniature CubeSats for education and research; and military/defense satellites.

Loading next visibility...
Identifier
64922, 2025-157U
Orbit
LEO
Country
Flag of USUS
Related business
Manufacturer
SpaceX/Seattle
Mission
Operational Commercial Communications
Bus & Motor
STARLINK V2MO, Unknown motor
Mass
575 kg wet, ~530 kg dry
Launch date (UTC)
2025-07-26 (4 months ago)
Launch vehicle
FALCON 9
Launch site
Air Force Eastern Test Range (AFETR)
Object type
Payload
Rocket body
Debris
Shape & HBR
Box + 2 Pan, 17.7 m
Radar Cross Section
36.964 m², Large (>1 m²)

Expand to show TLE details & history
Last TLE update: 2 days ago

TLE from 2 days ago
0 STARLINK-34700
1 64922U 25157U   25312.69906149  .00084652  00000-0  21018-2 0  9999
2 64922  53.1580 193.7637 0001166  60.3663 299.7457 15.39634556 17469
Epoch: 2025-11-08T16:46Z
TLE epoch observation values (Epoch: 2025-11-08T16:46:38.912Z)
Latitude
-0.00011°
Longitude
-106.02344°
Altitude
447.698 km
Speed
7.645 km/s
True Right ascension
12h 55m 03s
True Declination
0° 00' 00"
Sunlit
Object was in daylight at epoch
Visualization orbit readout
Latitude
Unknown
Longitude
Unknown
Altitude
Unknown
Speed
Unknown
Apparent Right ascension
Unknown
Apparent Declination
Unknown
Sunlit
N/A
Visualization observer readout
Local Sidereal Time
04:44:12
Azimuth
Unknown
Elevation
Unknown
Doppler factor
Unknown
Orbital elements
Apogee altitude
448.243 km
Perigee altitude
446.651 km
Semi-major axis
6,825.584 km
Eccentricity
0.00012
Inclination
53.158°
RAAN
193.7637°
Arg. of periapsis
60.3663°
True anomaly
299.7341°
Mean anomaly
299.7457°
Eccentric anomaly
299.7399°
Mean motion
3.84887 °/min
Orbital period
93.53 mins
BSTAR
0.0021018
Loading maneuver chart data...
Computing Atmospheric mass density...
Loading historical data...
Loading historical data...
Loading historical data...
Loading historical data...
Loading historical data...
Loading historical data...
Loading historical data...

Documentation

Showing up to 5 results
|